Location: Waco, TX
(31.5480°N, 97.1670°W)
Time: 22:22:34
(UTC-05:00)

ISS - Pass Details

Date: 14 September 2017
Orbit: 402 x 408 km, 51.6° (Epoch: 22 July)

Event Time Altitude Azimuth Distance (km) Brightness Sun altitude
Rises 02:00:16 0° 274° (W) 2,377 - -54.1°
Reaches altitude 10° 02:03:45 10° 312° (NW) 1,521 - -53.9°
Maximum altitude 02:04:47 11° 330° (NNW) 1,460 - -53.8°
Drops below altitude 10° 02:05:50 10° 348° (NNW) 1,526 - -53.8°
Sets 02:09:21 0° 25° (NNE) 2,400 - -53.5°
